Regional Weather Roundup
Issued by NWS Goodland, KS

Home | Current Version | Previous Version | Graphics & Text | Print | Product List | Glossary On
Versions: 1 2 3 4 5 6 7 8 9 10 11 12 13 14 15 16 17 18 19 20 21 22 23 24 25 26 27 28 29 30 31 32 33 34 35 36 37 38 39 40 41 42 43 44 45 46 47 48 49 50
000
ASUS43 KGLD 282159
RWRGLD

GOODLAND FORECAST AREA HOURLY WEATHER ROUNDUP
NATIONAL WEATHER SERVICE GOODLAND KS
400 PM MDT FRI APR 28 2017

...OFFICIAL OBSERVATIONS...

CITY           SKY/WX    TMP DP  RH WIND       PRES   REMARKS
GOODLAND KS    CLOUDY    39  37  92 NE17G23   29.81R
HILL CITY KS   CLOUDY    43  40  89 NE16G23   29.84R
IMPERIAL NEB   CLOUDY    37  33  85 NE18      29.88R
MCCOOK NEB     CLOUDY    39  36  89 NE16      29.87R
AKRON CO       CLOUDY    35  33  92 E22G28    29.82R
BURLINGTON CO  NOT AVBL
LIMON CO       CLOUDY    43  36  76 NE28G37   29.72R
$$

...UNOFFICIAL OBSERVATIONS...

CITY           SKY/WX    TMP DP  RH WIND       PRES   REMARKS
LENORA KS        N/A     40  32  73 MISG        N/A
NORTON KS      CLOUDY    37  34  87 NE15G23   29.86R
SHARON SPRINGS   N/A     49  41  75 NE22        N/A
TRENTON NEB      N/A     38  32  79 NE13        N/A
KIT CARSON CO    N/A     48  39  71 MISG        N/A
YUMA CO        CLOUDY    34  34 100 E16       29.84R
$$




USA.gov is the U.S. government's official web portal to all federal, state and local government web resources and services.